Time,TemperatureF,DewpointF,PressureIn,WindDirection,WindDirectionDegrees,WindSpeedMPH,WindSpeedGustMPH,Humidity,HourlyPrecipIn,Conditions,Clouds,dailyrainin,SoftwareType,DateUTC
2013-04-13 00:00:00,31.0,29.0,29.94,WSW,247,6.0,9.0,95,0.00,,,0.01,Rainwise IP-100,2013-04-13 04:00:00,
2013-04-13 00:01:00,31.0,29.0,29.94,WSW,247,6.0,9.0,95,0.00,,,0.00,Rainwise IP-100,2013-04-13 04:01:00,
2013-04-13 00:06:00,31.0,29.0,29.94,SW,225,7.0,8.0,95,0.00,,,0.00,Rainwise IP-100,2013-04-13 04:06:00,
2013-04-13 00:11:00,31.0,29.0,29.94,SW,225,6.0,10.0,95,0.00,,,0.00,Rainwise IP-100,2013-04-13 04:11:00,
2013-04-13 00:16:00,31.0,29.0,29.94,SW,225,6.0,8.0,95,0.00,,,0.00,Rainwise IP-100,2013-04-13 04:16:00,
2013-04-13 00:21:00,31.0,29.0,29.94,SW,225,6.0,9.0,95,0.00,,,0.00,Rainwise IP-100,2013-04-13 04:21:00,
2013-04-13 00:26:00,31.0,29.0,29.94,WSW,247,7.0,9.0,95,0.00,,,0.00,Rainwise IP-100,2013-04-13 04:26:00,
2013-04-13 00:31:00,31.0,29.0,29.94,WSW,247,7.0,9.0,95,0.00,,,0.00,Rainwise IP-100,2013-04-13 04:31:00,
2013-04-13 00:36:00,31.0,29.0,29.94,SW,225,6.0,8.0,95,0.00,,,0.00,Rainwise IP-100,2013-04-13 04:36:00,
2013-04-13 00:41:00,31.0,29.0,29.94,WSW,247,8.0,9.0,95,0.00,,,0.00,Rainwise IP-100,2013-04-13 04:41:00,
2013-04-13 00:46:00,31.0,29.0,29.94,WSW,247,7.0,10.0,95,0.00,,,0.00,Rainwise IP-100,2013-04-13 04:46:00,
2013-04-13 00:51:00,31.0,29.0,29.93,SW,225,7.0,8.0,95,0.00,,,0.00,Rainwise IP-100,2013-04-13 04:51:00,
2013-04-13 00:56:00,31.0,29.0,29.93,WSW,247,3.0,8.0,95,0.00,,,0.00,Rainwise IP-100,2013-04-13 04:56:00,
2013-04-13 01:02:00,31.0,29.0,29.92,WSW,247,5.0,7.0,95,0.00,,,0.00,Rainwise IP-100,2013-04-13 05:02:00,
2013-04-13 01:07:00,31.0,29.0,29.92,West,270,6.0,7.0,95,0.00,,,0.00,Rainwise IP-100,2013-04-13 05:07:00,
2013-04-13 01:12:00,31.0,29.0,29.94,West,270,4.0,8.0,95,0.00,,,0.00,Rainwise IP-100,2013-04-13 05:12:00,
2013-04-13 01:17:00,31.0,29.0,29.94,West,270,0.0,6.0,95,0.00,,,0.00,Rainwise IP-100,2013-04-13 05:17:00,
2013-04-13 01:22:00,31.0,29.0,29.90,NW,315,1.0,1.0,95,0.00,,,0.00,Rainwise IP-100,2013-04-13 05:22:00,
2013-04-13 01:27:00,30.0,29.0,29.90,NE,45,0.0,4.0,95,0.00,,,0.00,Rainwise IP-100,2013-04-13 05:27:00,
2013-04-13 01:32:00,30.0,29.0,29.92,ENE,67,0.0,1.0,95,0.00,,,0.00,Rainwise IP-100,2013-04-13 05:32:00,
2013-04-13 01:37:00,30.0,29.0,29.92,ENE,67,0.0,0.0,95,0.00,,,0.00,Rainwise IP-100,2013-04-13 05:37:00,
2013-04-13 01:42:00,30.0,29.0,29.92,ENE,67,2.0,2.0,95,0.00,,,0.00,Rainwise IP-100,2013-04-13 05:42:00,
2013-04-13 01:47:00,30.0,29.0,29.92,West,270,6.0,6.0,95,0.00,,,0.00,Rainwise IP-100,2013-04-13 05:47:00,
2013-04-13 01:52:00,30.0,29.0,29.93,SW,225,4.0,6.0,95,0.00,,,0.00,Rainwise IP-100,2013-04-13 05:52:00,
2013-04-13 01:57:00,31.0,29.0,29.93,SW,225,7.0,9.0,95,0.00,,,0.00,Rainwise IP-100,2013-04-13 05:57:00,
2013-04-13 02:02:00,31.0,29.0,29.93,SW,225,7.0,10.0,95,0.00,,,0.00,Rainwise IP-100,2013-04-13 06:02:00,
2013-04-13 02:07:00,31.0,29.0,29.93,SW,225,6.0,13.0,95,0.00,,,0.00,Rainwise IP-100,2013-04-13 06:07:00,
2013-04-13 02:12:00,31.0,29.0,29.93,SW,225,5.0,12.0,95,0.00,,,0.00,Rainwise IP-100,2013-04-13 06:12:00,
2013-04-13 02:17:00,31.0,29.0,29.93,SSW,202,9.0,9.0,95,0.00,,,0.00,Rainwise IP-100,2013-04-13 06:17:00,
2013-04-13 02:22:00,31.0,29.0,29.92,SSW,202,7.0,10.0,95,0.00,,,0.00,Rainwise IP-100,2013-04-13 06:22:00,
2013-04-13 02:27:00,31.0,29.0,29.92,WSW,247,5.0,12.0,95,0.00,,,0.00,Rainwise IP-100,2013-04-13 06:27:00,
2013-04-13 02:32:00,31.0,29.0,29.91,SSW,202,8.0,10.0,95,0.00,,,0.00,Rainwise IP-100,2013-04-13 06:32:00,
2013-04-13 02:37:00,31.0,29.0,29.91,SW,225,6.0,10.0,95,0.00,,,0.00,Rainwise IP-100,2013-04-13 06:37:00,
2013-04-13 02:42:00,31.0,29.0,29.90,WSW,247,6.0,12.0,95,0.00,,,0.00,Rainwise IP-100,2013-04-13 06:42:00,
2013-04-13 02:47:00,31.0,29.0,29.90,SW,225,4.0,9.0,95,0.00,,,0.00,Rainwise IP-100,2013-04-13 06:47:00,
2013-04-13 02:52:00,31.0,29.0,29.91,SW,225,4.0,8.0,95,0.00,,,0.00,Rainwise IP-100,2013-04-13 06:52:00,
2013-04-13 02:57:00,31.0,29.0,29.91,WSW,247,4.0,8.0,95,0.00,,,0.00,Rainwise IP-100,2013-04-13 06:57:00,
2013-04-13 03:02:00,31.0,29.0,29.91,WSW,247,5.0,7.0,95,0.00,,,0.00,Rainwise IP-100,2013-04-13 07:02:00,
2013-04-13 03:07:00,31.0,29.0,29.91,South,180,7.0,7.0,95,0.00,,,0.00,Rainwise IP-100,2013-04-13 07:07:00,
2013-04-13 03:12:00,31.0,29.0,29.90,SSW,202,6.0,8.0,95,0.00,,,0.00,Rainwise IP-100,2013-04-13 07:12:00,
2013-04-13 03:17:00,31.0,29.0,29.90,SW,225,5.0,9.0,95,0.00,,,0.00,Rainwise IP-100,2013-04-13 07:17:00,
2013-04-13 03:22:00,31.0,29.0,29.90,SW,225,6.0,9.0,95,0.00,,,0.00,Rainwise IP-100,2013-04-13 07:22:00,
2013-04-13 03:27:00,31.0,29.0,29.90,SW,225,7.0,9.0,95,0.00,,,0.00,Rainwise IP-100,2013-04-13 07:27:00,
2013-04-13 03:32:00,31.0,29.0,29.89,WSW,247,6.0,10.0,95,0.00,,,0.00,Rainwise IP-100,2013-04-13 07:32:00,
2013-04-13 03:37:00,31.0,29.0,29.89,WSW,247,6.0,9.0,95,0.00,,,0.00,Rainwise IP-100,2013-04-13 07:37:00,
2013-04-13 03:42:00,31.0,29.0,29.89,SW,225,6.0,9.0,95,0.00,,,0.00,Rainwise IP-100,2013-04-13 07:42:00,
2013-04-13 03:47:00,31.0,29.0,29.89,SW,225,6.0,9.0,95,0.00,,,0.00,Rainwise IP-100,2013-04-13 07:47:00,
2013-04-13 03:52:00,32.0,31.0,29.88,SW,225,7.0,11.0,95,0.00,,,0.00,Rainwise IP-100,2013-04-13 07:52:00,
2013-04-13 03:57:00,31.0,29.0,29.88,SW,225,5.0,10.0,95,0.00,,,0.00,Rainwise IP-100,2013-04-13 07:57:00,
2013-04-13 04:02:00,32.0,31.0,29.88,SSW,202,5.0,9.0,95,0.00,,,0.00,Rainwise IP-100,2013-04-13 08:02:00,
2013-04-13 04:07:00,31.0,29.0,29.88,SW,225,4.0,6.0,95,0.00,,,0.00,Rainwise IP-100,2013-04-13 08:07:00,
2013-04-13 04:12:00,31.0,29.0,29.88,SW,225,5.0,7.0,95,0.00,,,0.00,Rainwise IP-100,2013-04-13 08:12:00,
2013-04-13 04:17:00,31.0,29.0,29.88,SW,225,6.0,7.0,95,0.00,,,0.00,Rainwise IP-100,2013-04-13 08:17:00,
2013-04-13 04:22:00,32.0,31.0,29.88,SW,225,5.0,8.0,95,0.00,,,0.00,Rainwise IP-100,2013-04-13 08:22:00,
2013-04-13 04:27:00,31.0,29.0,29.88,West,270,1.0,6.0,95,0.00,,,0.00,Rainwise IP-100,2013-04-13 08:27:00,
2013-04-13 04:32:00,31.0,29.0,29.89,SSW,202,4.0,6.0,95,0.00,,,0.00,Rainwise IP-100,2013-04-13 08:32:00,
2013-04-13 04:37:00,32.0,31.0,29.89,South,180,6.0,8.0,95,0.00,,,0.00,Rainwise IP-100,2013-04-13 08:37:00,
2013-04-13 04:42:00,32.0,31.0,29.89,SSW,202,7.0,12.0,95,0.00,,,0.00,Rainwise IP-100,2013-04-13 08:42:00,
2013-04-13 04:47:00,32.0,31.0,29.89,SSW,202,9.0,12.0,95,0.00,,,0.00,Rainwise IP-100,2013-04-13 08:47:00,
2013-04-13 04:52:00,32.0,31.0,29.88,SW,225,7.0,12.0,95,0.00,,,0.00,Rainwise IP-100,2013-04-13 08:52:00,
2013-04-13 04:57:00,31.0,29.0,29.88,SW,225,8.0,13.0,95,0.00,,,0.00,Rainwise IP-100,2013-04-13 08:57:00,
2013-04-13 05:02:00,31.0,29.0,29.88,SW,225,8.0,11.0,95,0.00,,,0.00,Rainwise IP-100,2013-04-13 09:02:00,
2013-04-13 05:07:00,31.0,29.0,29.88,SW,225,7.0,10.0,95,0.00,,,0.00,Rainwise IP-100,2013-04-13 09:07:00,
2013-04-13 05:12:00,31.0,29.0,29.88,WSW,247,7.0,10.0,95,0.00,,,0.00,Rainwise IP-100,2013-04-13 09:12:00,
2013-04-13 05:17:00,31.0,29.0,29.88,SW,225,8.0,10.0,95,0.00,,,0.00,Rainwise IP-100,2013-04-13 09:17:00,
2013-04-13 05:22:00,31.0,29.0,29.88,WSW,247,7.0,10.0,95,0.00,,,0.00,Rainwise IP-100,2013-04-13 09:22:00,
2013-04-13 05:27:00,31.0,29.0,29.88,SW,225,6.0,9.0,95,0.00,,,0.00,Rainwise IP-100,2013-04-13 09:27:00,
2013-04-13 05:32:00,31.0,29.0,29.88,SSE,157,0.0,7.0,95,0.00,,,0.00,Rainwise IP-100,2013-04-13 09:32:00,
2013-04-13 05:37:00,31.0,29.0,29.88,SSE,157,0.0,2.0,95,0.00,,,0.00,Rainwise IP-100,2013-04-13 09:37:00,
2013-04-13 05:43:00,31.0,29.0,29.88,SSE,157,0.0,0.0,95,0.00,,,0.00,Rainwise IP-100,2013-04-13 09:43:00,
2013-04-13 05:48:00,31.0,29.0,29.88,South,180,5.0,6.0,95,0.00,,,0.00,Rainwise IP-100,2013-04-13 09:48:00,
2013-04-13 05:53:00,31.0,29.0,29.88,SSE,157,4.0,6.0,95,0.00,,,0.00,Rainwise IP-100,2013-04-13 09:53:00,
2013-04-13 05:58:00,31.0,29.0,29.88,SW,225,6.0,9.0,95,0.00,,,0.00,Rainwise IP-100,2013-04-13 09:58:00,
2013-04-13 06:03:00,32.0,31.0,29.88,South,180,7.0,9.0,95,0.00,,,0.00,Rainwise IP-100,2013-04-13 10:03:00,
2013-04-13 06:08:00,32.0,31.0,29.88,West,270,7.0,10.0,95,0.00,,,0.00,Rainwise IP-100,2013-04-13 10:08:00,
2013-04-13 06:13:00,31.0,29.0,29.88,WSW,247,1.0,7.0,95,0.00,,,0.00,Rainwise IP-100,2013-04-13 10:13:00,
2013-04-13 06:18:00,31.0,29.0,29.88,West,270,2.0,4.0,95,0.00,,,0.00,Rainwise IP-100,2013-04-13 10:18:00,
2013-04-13 06:23:00,31.0,29.0,29.89,West,270,0.0,2.0,95,0.00,,,0.00,Rainwise IP-100,2013-04-13 10:23:00,
2013-04-13 06:28:00,31.0,29.0,29.89,South,180,4.0,6.0,95,0.00,,,0.00,Rainwise IP-100,2013-04-13 10:28:00,
2013-04-13 06:33:00,31.0,29.0,29.88,SW,225,3.0,7.0,95,0.00,,,0.00,Rainwise IP-100,2013-04-13 10:33:00,
2013-04-13 06:38:00,32.0,31.0,29.88,South,180,7.0,8.0,95,0.00,,,0.00,Rainwise IP-100,2013-04-13 10:38:00,
2013-04-13 06:43:00,32.0,31.0,29.88,SSW,202,7.0,12.0,95,0.00,,,0.00,Rainwise IP-100,2013-04-13 10:43:00,
2013-04-13 06:48:00,32.0,31.0,29.88,SW,225,9.0,10.0,95,0.00,,,0.00,Rainwise IP-100,2013-04-13 10:48:00,
2013-04-13 06:53:00,32.0,31.0,29.89,SW,225,7.0,10.0,95,0.00,,,0.00,Rainwise IP-100,2013-04-13 10:53:00,
2013-04-13 06:58:00,32.0,31.0,29.89,SW,225,7.0,11.0,95,0.00,,,0.00,Rainwise IP-100,2013-04-13 10:58:00,
2013-04-13 07:03:00,32.0,31.0,29.88,SSW,202,7.0,8.0,95,0.00,,,0.00,Rainwise IP-100,2013-04-13 11:03:00,
2013-04-13 07:08:00,32.0,31.0,29.88,SSW,202,5.0,7.0,95,0.00,,,0.00,Rainwise IP-100,2013-04-13 11:08:00,
2013-04-13 07:13:00,32.0,31.0,29.89,WSW,247,3.0,7.0,95,0.00,,,0.00,Rainwise IP-100,2013-04-13 11:13:00,
2013-04-13 07:18:00,32.0,31.0,29.89,WSW,247,0.0,3.0,95,0.00,,,0.00,Rainwise IP-100,2013-04-13 11:18:00,
2013-04-13 07:23:00,32.0,31.0,29.90,WSW,247,4.0,6.0,95,0.00,,,0.00,Rainwise IP-100,2013-04-13 11:23:00,
2013-04-13 07:28:00,32.0,31.0,29.90,West,270,0.0,4.0,95,0.00,,,0.00,Rainwise IP-100,2013-04-13 11:28:00,
2013-04-13 07:33:00,32.0,31.0,29.90,West,270,0.0,0.0,95,0.00,,,0.00,Rainwise IP-100,2013-04-13 11:33:00,
2013-04-13 07:38:00,32.0,31.0,29.90,SE,135,4.0,5.0,95,0.00,,,0.00,Rainwise IP-100,2013-04-13 11:38:00,
2013-04-13 07:43:00,32.0,31.0,29.89,SE,135,6.0,8.0,95,0.00,,,0.00,Rainwise IP-100,2013-04-13 11:43:00,
2013-04-13 07:48:00,32.0,31.0,29.89,WSW,247,5.0,8.0,95,0.00,,,0.00,Rainwise IP-100,2013-04-13 11:48:00,
2013-04-13 07:53:00,33.0,32.0,29.89,WSW,247,6.0,9.0,95,0.00,,,0.00,Rainwise IP-100,2013-04-13 11:53:00,
2013-04-13 07:58:00,33.0,32.0,29.89,WSW,247,6.0,9.0,95,0.00,,,0.00,Rainwise IP-100,2013-04-13 11:58:00,
2013-04-13 08:03:00,33.0,32.0,29.89,SW,225,7.0,9.0,95,0.00,,,0.00,Rainwise IP-100,2013-04-13 12:03:00,
2013-04-13 08:08:00,33.0,32.0,29.89,South,180,8.0,10.0,95,0.00,,,0.00,Rainwise IP-100,2013-04-13 12:08:00,
2013-04-13 08:13:00,34.0,33.0,29.88,South,180,7.0,10.0,95,0.00,,,0.00,Rainwise IP-100,2013-04-13 12:13:00,
2013-04-13 08:18:00,34.0,33.0,29.88,SSE,157,6.0,9.0,95,0.00,,,0.00,Rainwise IP-100,2013-04-13 12:18:00,
2013-04-13 08:23:00,34.0,33.0,29.89,South,180,9.0,10.0,94,0.00,,,0.00,Rainwise IP-100,2013-04-13 12:23:00,
2013-04-13 08:28:00,34.0,33.0,29.89,South,180,5.0,10.0,94,0.00,,,0.00,Rainwise IP-100,2013-04-13 12:28:00,
2013-04-13 08:33:00,34.0,33.0,29.89,SSW,202,4.0,7.0,95,0.00,,,0.00,Rainwise IP-100,2013-04-13 12:33:00,
2013-04-13 08:39:00,34.0,33.0,29.89,WSW,247,7.0,8.0,95,0.00,,,0.00,Rainwise IP-100,2013-04-13 12:39:00,
2013-04-13 08:44:00,36.0,33.0,29.89,SSE,157,5.0,9.0,90,0.00,,,0.00,Rainwise IP-100,2013-04-13 12:44:00,
2013-04-13 08:49:00,36.0,32.0,29.89,South,180,6.0,12.0,88,0.00,,,0.00,Rainwise IP-100,2013-04-13 12:49:00,
2013-04-13 08:54:00,36.0,32.0,29.88,West,270,6.0,16.0,88,0.00,,,0.00,Rainwise IP-100,2013-04-13 12:54:00,
2013-04-13 08:59:00,37.0,33.0,29.88,SSE,157,6.0,12.0,87,0.00,,,0.00,Rainwise IP-100,2013-04-13 12:59:00,
2013-04-13 09:04:00,35.0,33.0,29.88,WNW,292,7.0,10.0,93,0.00,,,0.00,Rainwise IP-100,2013-04-13 13:04:00,
2013-04-13 09:09:00,36.0,33.0,29.88,South,180,4.0,10.0,91,0.00,,,0.00,Rainwise IP-100,2013-04-13 13:09:00,
2013-04-13 09:14:00,36.0,33.0,29.89,SSW,202,6.0,9.0,89,0.00,,,0.00,Rainwise IP-100,2013-04-13 13:14:00,
2013-04-13 09:19:00,36.0,33.0,29.89,South,180,6.0,7.0,91,0.00,,,0.00,Rainwise IP-100,2013-04-13 13:19:00,
2013-04-13 09:24:00,37.0,35.0,29.89,SSE,157,9.0,11.0,91,0.00,,,0.00,Rainwise IP-100,2013-04-13 13:24:00,
2013-04-13 09:29:00,37.0,35.0,29.89,SW,225,5.0,11.0,90,0.00,,,0.00,Rainwise IP-100,2013-04-13 13:29:00,
2013-04-13 09:34:00,37.0,35.0,29.89,SSW,202,6.0,12.0,89,0.06,,,0.01,Rainwise IP-100,2013-04-13 13:34:00,
2013-04-13 09:39:00,38.0,35.0,29.89,SSW,202,7.0,11.0,86,0.06,,,0.01,Rainwise IP-100,2013-04-13 13:39:00,
2013-04-13 09:44:00,38.0,35.0,29.88,SSW,202,9.0,12.0,86,0.00,,,0.01,Rainwise IP-100,2013-04-13 13:44:00,
2013-04-13 09:49:00,38.0,35.0,29.88,SW,225,4.0,11.0,88,0.00,,,0.01,Rainwise IP-100,2013-04-13 13:49:00,
2013-04-13 09:54:00,38.0,35.0,29.88,SSW,202,8.0,10.0,86,0.00,,,0.01,Rainwise IP-100,2013-04-13 13:54:00,
2013-04-13 09:59:00,38.0,35.0,29.88,WSW,247,8.0,12.0,86,0.00,,,0.01,Rainwise IP-100,2013-04-13 13:59:00,
2013-04-13 10:04:00,38.0,35.0,29.88,SW,225,8.0,12.0,86,0.00,,,0.01,Rainwise IP-100,2013-04-13 14:04:00,
2013-04-13 10:09:00,38.0,35.0,29.88,WSW,247,10.0,14.0,86,0.00,,,0.01,Rainwise IP-100,2013-04-13 14:09:00,
2013-04-13 10:14:00,38.0,35.0,29.88,West,270,6.0,14.0,86,0.00,,,0.01,Rainwise IP-100,2013-04-13 14:14:00,
2013-04-13 10:19:00,38.0,35.0,29.88,SW,225,9.0,9.0,86,0.00,,,0.01,Rainwise IP-100,2013-04-13 14:19:00,
2013-04-13 10:24:00,38.0,35.0,29.88,NW,315,6.0,13.0,85,0.00,,,0.01,Rainwise IP-100,2013-04-13 14:24:00,
2013-04-13 10:29:00,38.0,33.0,29.88,SW,225,6.0,13.0,84,0.00,,,0.01,Rainwise IP-100,2013-04-13 14:29:00,
2013-04-13 10:34:00,39.0,36.0,29.88,SW,225,7.0,12.0,86,0.00,,,0.01,Rainwise IP-100,2013-04-13 14:34:00,
2013-04-13 10:39:00,39.0,35.0,29.88,West,270,10.0,11.0,85,0.00,,,0.01,Rainwise IP-100,2013-04-13 14:39:00,
2013-04-13 10:44:00,39.0,35.0,29.88,WSW,247,10.0,14.0,84,0.00,,,0.01,Rainwise IP-100,2013-04-13 14:44:00,
2013-04-13 10:49:00,39.0,35.0,29.88,WSW,247,6.0,14.0,83,0.00,,,0.01,Rainwise IP-100,2013-04-13 14:49:00,
2013-04-13 10:54:00,39.0,35.0,29.88,West,270,7.0,12.0,84,0.00,,,0.01,Rainwise IP-100,2013-04-13 14:54:00,
2013-04-13 10:59:00,39.0,35.0,29.88,SW,225,13.0,13.0,83,0.00,,,0.01,Rainwise IP-100,2013-04-13 14:59:00,
2013-04-13 11:04:00,39.0,35.0,29.89,SW,225,4.0,13.0,83,0.18,,,0.04,Rainwise IP-100,2013-04-13 15:04:00,
2013-04-13 11:09:00,39.0,35.0,29.89,WSW,247,9.0,12.0,83,0.24,,,0.05,Rainwise IP-100,2013-04-13 15:09:00,
2013-04-13 11:14:00,39.0,35.0,29.89,SW,225,7.0,15.0,84,0.12,,,0.06,Rainwise IP-100,2013-04-13 15:14:00,
2013-04-13 11:19:00,39.0,35.0,29.89,SW,225,9.0,15.0,84,0.18,,,0.08,Rainwise IP-100,2013-04-13 15:19:00,
2013-04-13 11:24:00,39.0,35.0,29.90,SW,225,7.0,11.0,84,0.12,,,0.08,Rainwise IP-100,2013-04-13 15:24:00,
2013-04-13 11:29:00,39.0,35.0,29.90,SW,225,11.0,13.0,83,0.12,,,0.10,Rainwise IP-100,2013-04-13 15:29:00,
2013-04-13 11:34:00,39.0,35.0,29.90,SW,225,9.0,12.0,84,0.12,,,0.10,Rainwise IP-100,2013-04-13 15:34:00,
2013-04-13 11:39:00,39.0,35.0,29.90,WSW,247,7.0,10.0,85,0.06,,,0.11,Rainwise IP-100,2013-04-13 15:39:00,
2013-04-13 11:44:00,39.0,35.0,29.90,West,270,10.0,17.0,84,0.12,,,0.12,Rainwise IP-100,2013-04-13 15:44:00,
2013-04-13 11:49:00,39.0,35.0,29.90,WSW,247,10.0,15.0,84,0.12,,,0.13,Rainwise IP-100,2013-04-13 15:49:00,
2013-04-13 11:54:00,39.0,35.0,29.90,WSW,247,10.0,12.0,83,0.06,,,0.13,Rainwise IP-100,2013-04-13 15:54:00,
2013-04-13 11:59:00,39.0,35.0,29.90,West,270,9.0,13.0,84,0.12,,,0.15,Rainwise IP-100,2013-04-13 15:59:00,
2013-04-13 12:04:00,39.0,35.0,29.90,SSW,202,6.0,13.0,83,0.18,,,0.16,Rainwise IP-100,2013-04-13 16:04:00,
2013-04-13 12:09:00,40.0,36.0,29.90,SSW,202,10.0,11.0,83,0.18,,,0.18,Rainwise IP-100,2013-04-13 16:09:00,
2013-04-13 12:14:00,40.0,36.0,29.89,SW,225,8.0,13.0,82,0.18,,,0.19,Rainwise IP-100,2013-04-13 16:14:00,
2013-04-13 12:19:00,40.0,35.0,29.89,South,180,11.0,13.0,81,0.18,,,0.21,Rainwise IP-100,2013-04-13 16:19:00,
2013-04-13 12:24:00,40.0,35.0,29.89,South,180,6.0,12.0,81,0.24,,,0.23,Rainwise IP-100,2013-04-13 16:24:00,
2013-04-13 12:29:00,41.0,36.0,29.89,South,180,1.0,12.0,79,0.18,,,0.25,Rainwise IP-100,2013-04-13 16:29:00,
2013-04-13 12:34:00,41.0,36.0,29.89,SSW,202,8.0,12.0,79,0.18,,,0.26,Rainwise IP-100,2013-04-13 16:34:00,
2013-04-13 12:39:00,41.0,35.0,29.89,South,180,6.0,10.0,78,0.24,,,0.28,Rainwise IP-100,2013-04-13 16:39:00,
2013-04-13 12:44:00,41.0,35.0,29.88,South,180,8.0,10.0,78,0.18,,,0.30,Rainwise IP-100,2013-04-13 16:44:00,
2013-04-13 12:49:00,41.0,35.0,29.88,SE,135,6.0,10.0,77,0.18,,,0.31,Rainwise IP-100,2013-04-13 16:49:00,
2013-04-13 12:54:00,42.0,36.0,29.88,South,180,6.0,8.0,76,0.24,,,0.33,Rainwise IP-100,2013-04-13 16:54:00,
2013-04-13 12:59:00,42.0,35.0,29.88,SE,135,8.0,10.0,74,0.24,,,0.35,Rainwise IP-100,2013-04-13 16:59:00,
2013-04-13 13:04:00,42.0,35.0,29.88,SSW,202,9.0,10.0,74,0.18,,,0.36,Rainwise IP-100,2013-04-13 17:04:00,
2013-04-13 13:09:00,42.0,35.0,29.88,SSW,202,5.0,11.0,74,0.12,,,0.37,Rainwise IP-100,2013-04-13 17:09:00,
2013-04-13 13:14:00,43.0,35.0,29.87,SSW,202,7.0,9.0,73,0.18,,,0.39,Rainwise IP-100,2013-04-13 17:14:00,
2013-04-13 13:19:00,43.0,35.0,29.87,ESE,112,5.0,10.0,73,0.18,,,0.40,Rainwise IP-100,2013-04-13 17:19:00,
2013-04-13 13:24:00,43.0,35.0,29.87,South,180,8.0,9.0,71,0.12,,,0.41,Rainwise IP-100,2013-04-13 17:24:00,
2013-04-13 13:29:00,44.0,35.0,29.87,SW,225,8.0,9.0,68,0.12,,,0.42,Rainwise IP-100,2013-04-13 17:29:00,
2013-04-13 13:34:00,44.0,35.0,29.86,SW,225,9.0,16.0,68,0.12,,,0.43,Rainwise IP-100,2013-04-13 17:34:00,
2013-04-13 13:39:00,44.0,35.0,29.86,SW,225,6.0,12.0,68,0.06,,,0.43,Rainwise IP-100,2013-04-13 17:39:00,
2013-04-13 13:44:00,44.0,33.0,29.86,WNW,292,12.0,14.0,66,0.06,,,0.44,Rainwise IP-100,2013-04-13 17:44:00,
2013-04-13 13:49:00,45.0,35.0,29.85,WSW,247,9.0,17.0,68,0.12,,,0.45,Rainwise IP-100,2013-04-13 17:49:00,
2013-04-13 13:54:00,45.0,35.0,29.85,SW,225,13.0,17.0,68,0.12,,,0.46,Rainwise IP-100,2013-04-13 17:54:00,
2013-04-13 13:59:00,45.0,35.0,29.85,WSW,247,11.0,17.0,65,0.12,,,0.47,Rainwise IP-100,2013-04-13 17:59:00,
2013-04-13 14:04:00,46.0,36.0,29.85,SW,225,7.0,15.0,67,0.06,,,0.47,Rainwise IP-100,2013-04-13 18:04:00,
2013-04-13 14:09:00,46.0,35.0,29.85,WSW,247,12.0,14.0,65,0.00,,,0.47,Rainwise IP-100,2013-04-13 18:09:00,
2013-04-13 14:14:00,46.0,35.0,29.85,WSW,247,13.0,15.0,65,0.00,,,0.47,Rainwise IP-100,2013-04-13 18:14:00,
2013-04-13 14:19:00,45.0,35.0,29.86,SW,225,8.0,14.0,66,0.00,,,0.47,Rainwise IP-100,2013-04-13 18:19:00,
2013-04-13 14:24:00,45.0,35.0,29.86,NW,315,10.0,15.0,67,0.00,,,0.47,Rainwise IP-100,2013-04-13 18:24:00,
2013-04-13 14:27:00,45.0,35.0,29.86,NW,315,4.0,15.0,68,0.00,,,0.47,Rainwise IP-100,2013-04-13 18:27:00,
2013-04-13 14:32:00,46.0,35.0,29.85,West,270,10.0,13.0,64,0.00,,,0.47,Rainwise IP-100,2013-04-13 18:32:00,
2013-04-13 14:36:00,46.0,35.0,29.85,SW,225,7.0,13.0,65,0.00,,,0.47,Rainwise IP-100,2013-04-13 18:36:00,
2013-04-13 14:41:00,46.0,35.0,29.86,NW,315,1.0,17.0,65,0.00,,,0.47,Rainwise IP-100,2013-04-13 18:41:00,
2013-04-13 14:46:00,46.0,36.0,29.86,WSW,247,10.0,13.0,68,0.00,,,0.47,Rainwise IP-100,2013-04-13 18:46:00,
2013-04-13 14:51:00,46.0,35.0,29.86,WSW,247,9.0,11.0,65,0.00,,,0.47,Rainwise IP-100,2013-04-13 18:51:00,
2013-04-13 14:54:00,46.0,35.0,29.86,WSW,247,9.0,10.0,64,0.00,,,0.47,Rainwise IP-100,2013-04-13 18:54:00,
2013-04-13 14:59:00,46.0,36.0,29.86,WNW,292,9.0,13.0,68,0.00,,,0.47,Rainwise IP-100,2013-04-13 18:59:00,
2013-04-13 15:04:00,46.0,35.0,29.86,West,270,7.0,11.0,65,0.00,,,0.47,Rainwise IP-100,2013-04-13 19:04:00,
2013-04-13 15:09:00,46.0,36.0,29.86,West,270,4.0,15.0,68,0.00,,,0.47,Rainwise IP-100,2013-04-13 19:09:00,
2013-04-13 15:14:00,46.0,36.0,29.85,SW,225,9.0,11.0,68,0.00,,,0.47,Rainwise IP-100,2013-04-13 19:14:00,
2013-04-13 15:19:00,46.0,35.0,29.85,SW,225,9.0,12.0,66,0.00,,,0.47,Rainwise IP-100,2013-04-13 19:19:00,
2013-04-13 15:24:00,45.0,35.0,29.86,WSW,247,7.0,14.0,68,0.00,,,0.47,Rainwise IP-100,2013-04-13 19:24:00,
2013-04-13 15:29:00,45.0,35.0,29.86,NW,315,10.0,13.0,68,0.00,,,0.47,Rainwise IP-100,2013-04-13 19:29:00,
2013-04-13 15:34:00,45.0,36.0,29.86,WSW,247,9.0,11.0,69,0.00,,,0.47,Rainwise IP-100,2013-04-13 19:34:00,
2013-04-13 15:39:00,45.0,36.0,29.86,SSW,202,9.0,17.0,70,0.00,,,0.47,Rainwise IP-100,2013-04-13 19:39:00,
2013-04-13 15:44:00,45.0,35.0,29.86,WSW,247,12.0,13.0,68,0.00,,,0.47,Rainwise IP-100,2013-04-13 19:44:00,
2013-04-13 15:49:00,45.0,36.0,29.86,WSW,247,9.0,13.0,70,0.00,,,0.47,Rainwise IP-100,2013-04-13 19:49:00,
2013-04-13 15:54:00,44.0,35.0,29.85,SW,225,7.0,15.0,69,0.00,,,0.47,Rainwise IP-100,2013-04-13 19:54:00,
2013-04-13 15:59:00,44.0,35.0,29.85,WSW,247,11.0,15.0,69,0.00,,,0.47,Rainwise IP-100,2013-04-13 19:59:00,
2013-04-13 16:04:00,44.0,36.0,29.86,WSW,247,9.0,16.0,71,0.00,,,0.47,Rainwise IP-100,2013-04-13 20:04:00,
2013-04-13 16:09:00,44.0,36.0,29.86,WSW,247,10.0,15.0,71,0.00,,,0.47,Rainwise IP-100,2013-04-13 20:09:00,
2013-04-13 16:14:00,44.0,36.0,29.86,West,270,5.0,11.0,73,0.00,,,0.47,Rainwise IP-100,2013-04-13 20:14:00,
2013-04-13 16:19:00,45.0,36.0,29.86,WSW,247,7.0,12.0,70,0.00,,,0.47,Rainwise IP-100,2013-04-13 20:19:00,
2013-04-13 16:24:00,45.0,36.0,29.85,WSW,247,7.0,12.0,70,0.00,,,0.47,Rainwise IP-100,2013-04-13 20:24:00,
2013-04-13 16:29:00,45.0,37.0,29.85,WSW,247,9.0,11.0,72,0.00,,,0.47,Rainwise IP-100,2013-04-13 20:29:00,
2013-04-13 16:34:00,44.0,36.0,29.85,WSW,247,7.0,13.0,71,0.00,,,0.47,Rainwise IP-100,2013-04-13 20:34:00,
2013-04-13 16:39:00,44.0,36.0,29.85,SW,225,10.0,11.0,72,0.00,,,0.47,Rainwise IP-100,2013-04-13 20:39:00,
2013-04-13 16:44:00,44.0,36.0,29.86,WSW,247,6.0,11.0,73,0.00,,,0.47,Rainwise IP-100,2013-04-13 20:44:00,
2013-04-13 16:49:00,44.0,36.0,29.86,West,270,9.0,13.0,73,0.00,,,0.47,Rainwise IP-100,2013-04-13 20:49:00,
2013-04-13 16:54:00,44.0,36.0,29.86,WNW,292,9.0,17.0,73,0.00,,,0.47,Rainwise IP-100,2013-04-13 20:54:00,
2013-04-13 16:59:00,44.0,36.0,29.86,SW,225,7.0,13.0,74,0.00,,,0.47,Rainwise IP-100,2013-04-13 20:59:00,
2013-04-13 17:04:00,44.0,36.0,29.87,WSW,247,7.0,13.0,72,0.00,,,0.47,Rainwise IP-100,2013-04-13 21:04:00,
2013-04-13 17:09:00,44.0,36.0,29.87,WNW,292,11.0,13.0,72,0.00,,,0.47,Rainwise IP-100,2013-04-13 21:09:00,
2013-04-13 17:14:00,44.0,36.0,29.87,SW,225,7.0,15.0,73,0.00,,,0.47,Rainwise IP-100,2013-04-13 21:14:00,
2013-04-13 17:19:00,44.0,36.0,29.87,WSW,247,7.0,13.0,71,0.00,,,0.47,Rainwise IP-100,2013-04-13 21:19:00,
2013-04-13 17:24:00,43.0,35.0,29.87,WNW,292,12.0,14.0,71,0.00,,,0.47,Rainwise IP-100,2013-04-13 21:24:00,
2013-04-13 17:29:00,43.0,35.0,29.87,WSW,247,8.0,17.0,72,0.00,,,0.47,Rainwise IP-100,2013-04-13 21:29:00,
2013-04-13 17:34:00,43.0,35.0,29.88,West,270,8.0,16.0,73,0.00,,,0.47,Rainwise IP-100,2013-04-13 21:34:00,
2013-04-13 17:39:00,43.0,35.0,29.88,West,270,10.0,13.0,72,0.00,,,0.47,Rainwise IP-100,2013-04-13 21:39:00,
2013-04-13 17:44:00,43.0,35.0,29.89,WSW,247,7.0,12.0,73,0.00,,,0.47,Rainwise IP-100,2013-04-13 21:44:00,
2013-04-13 17:49:00,43.0,35.0,29.89,WSW,247,8.0,12.0,73,0.00,,,0.47,Rainwise IP-100,2013-04-13 21:49:00,
2013-04-13 17:54:00,43.0,36.0,29.89,WSW,247,9.0,13.0,74,0.00,,,0.47,Rainwise IP-100,2013-04-13 21:54:00,
2013-04-13 17:59:00,43.0,36.0,29.89,WSW,247,7.0,12.0,74,0.00,,,0.47,Rainwise IP-100,2013-04-13 21:59:00,
2013-04-13 18:04:00,43.0,36.0,29.90,WSW,247,12.0,12.0,74,0.00,,,0.47,Rainwise IP-100,2013-04-13 22:04:00,
2013-04-13 18:09:00,43.0,36.0,29.90,WSW,247,6.0,12.0,74,0.00,,,0.47,Rainwise IP-100,2013-04-13 22:09:00,
2013-04-13 18:14:00,43.0,36.0,29.90,WSW,247,7.0,7.0,74,0.00,,,0.47,Rainwise IP-100,2013-04-13 22:14:00,
2013-04-13 18:19:00,43.0,36.0,29.90,WSW,247,7.0,9.0,74,0.00,,,0.47,Rainwise IP-100,2013-04-13 22:19:00,
2013-04-13 18:24:00,43.0,35.0,29.90,SW,225,10.0,11.0,73,0.00,,,0.47,Rainwise IP-100,2013-04-13 22:24:00,
2013-04-13 18:29:00,43.0,36.0,29.90,WSW,247,5.0,11.0,75,0.00,,,0.47,Rainwise IP-100,2013-04-13 22:29:00,
2013-04-13 18:34:00,43.0,36.0,29.91,SW,225,6.0,7.0,75,0.00,,,0.47,Rainwise IP-100,2013-04-13 22:34:00,
2013-04-13 18:39:00,43.0,36.0,29.91,WSW,247,5.0,7.0,75,0.00,,,0.47,Rainwise IP-100,2013-04-13 22:39:00,
2013-04-13 18:44:00,43.0,36.0,29.91,SW,225,2.0,6.0,76,0.00,,,0.47,Rainwise IP-100,2013-04-13 22:44:00,
2013-04-13 18:49:00,43.0,37.0,29.91,WSW,247,4.0,6.0,77,0.00,,,0.47,Rainwise IP-100,2013-04-13 22:49:00,
2013-04-13 18:54:00,42.0,36.0,29.91,SW,225,7.0,7.0,78,0.00,,,0.47,Rainwise IP-100,2013-04-13 22:54:00,
2013-04-13 18:59:00,42.0,37.0,29.91,SSW,202,7.0,12.0,80,0.00,,,0.47,Rainwise IP-100,2013-04-13 22:59:00,
2013-04-13 19:04:00,42.0,37.0,29.91,SSW,202,9.0,9.0,82,0.00,,,0.47,Rainwise IP-100,2013-04-13 23:04:00,
2013-04-13 19:09:00,42.0,37.0,29.91,SW,225,6.0,10.0,82,0.00,,,0.47,Rainwise IP-100,2013-04-13 23:09:00,
2013-04-13 19:14:00,42.0,38.0,29.91,SW,225,6.0,7.0,84,0.00,,,0.47,Rainwise IP-100,2013-04-13 23:14:00,
2013-04-13 19:19:00,41.0,37.0,29.91,WSW,247,4.0,7.0,86,0.00,,,0.47,Rainwise IP-100,2013-04-13 23:19:00,
2013-04-13 19:24:00,41.0,38.0,29.92,WSW,247,5.0,7.0,87,0.06,,,0.48,Rainwise IP-100,2013-04-13 23:24:00,
2013-04-13 19:29:00,41.0,38.0,29.92,SW,225,7.0,7.0,88,0.06,,,0.48,Rainwise IP-100,2013-04-13 23:29:00,
2013-04-13 19:34:00,40.0,38.0,29.92,SW,225,6.0,9.0,90,0.00,,,0.48,Rainwise IP-100,2013-04-13 23:34:00,
2013-04-13 19:39:00,40.0,37.0,29.92,SW,225,9.0,12.0,88,0.00,,,0.48,Rainwise IP-100,2013-04-13 23:39:00,
2013-04-13 19:44:00,41.0,38.0,29.93,SW,225,7.0,12.0,88,0.00,,,0.48,Rainwise IP-100,2013-04-13 23:44:00,
2013-04-13 19:49:00,40.0,38.0,29.93,South,180,7.0,9.0,90,0.00,,,0.48,Rainwise IP-100,2013-04-13 23:49:00,
2013-04-13 19:54:00,40.0,38.0,29.93,SSW,202,6.0,9.0,90,0.00,,,0.48,Rainwise IP-100,2013-04-13 23:54:00,
2013-04-13 19:59:00,40.0,38.0,29.93,SW,225,4.0,6.0,91,0.00,,,0.48,Rainwise IP-100,2013-04-13 23:59:00,
2013-04-13 20:04:00,40.0,38.0,29.94,SW,225,7.0,8.0,91,0.00,,,0.48,Rainwise IP-100,2013-04-14 00:04:00,
2013-04-13 20:09:00,40.0,38.0,29.94,SSW,202,5.0,10.0,92,0.00,,,0.48,Rainwise IP-100,2013-04-14 00:09:00,
2013-04-13 20:15:00,40.0,39.0,29.94,SSW,202,7.0,9.0,94,0.06,,,0.49,Rainwise IP-100,2013-04-14 00:15:00,
2013-04-13 20:20:00,39.0,38.0,29.94,SW,225,7.0,12.0,95,0.06,,,0.49,Rainwise IP-100,2013-04-14 00:20:00,
2013-04-13 20:25:00,39.0,38.0,29.95,SSW,202,7.0,12.0,95,0.00,,,0.49,Rainwise IP-100,2013-04-14 00:25:00,
2013-04-13 20:30:00,39.0,38.0,29.95,SSW,202,12.0,15.0,96,0.00,,,0.49,Rainwise IP-100,2013-04-14 00:30:00,
2013-04-13 20:35:00,39.0,38.0,29.96,South,180,8.0,13.0,94,0.06,,,0.50,Rainwise IP-100,2013-04-14 00:35:00,
2013-04-13 20:40:00,39.0,37.0,29.96,SW,225,9.0,13.0,93,0.06,,,0.50,Rainwise IP-100,2013-04-14 00:40:00,
2013-04-13 20:45:00,39.0,38.0,29.96,South,180,10.0,15.0,94,0.00,,,0.50,Rainwise IP-100,2013-04-14 00:45:00,
2013-04-13 20:50:00,39.0,38.0,29.96,SSE,157,5.0,15.0,95,0.00,,,0.50,Rainwise IP-100,2013-04-14 00:50:00,
2013-04-13 20:55:00,39.0,37.0,29.96,South,180,15.0,15.0,90,0.00,,,0.50,Rainwise IP-100,2013-04-14 00:55:00,
2013-04-13 21:00:00,39.0,37.0,29.96,South,180,10.0,16.0,93,0.00,,,0.50,Rainwise IP-100,2013-04-14 01:00:00,
2013-04-13 21:05:00,38.0,37.0,29.97,SE,135,7.0,10.0,94,0.00,,,0.50,Rainwise IP-100,2013-04-14 01:05:00,
2013-04-13 21:10:00,38.0,36.0,29.97,SE,135,7.0,12.0,93,0.00,,,0.50,Rainwise IP-100,2013-04-14 01:10:00,
2013-04-13 21:15:00,39.0,37.0,29.96,South,180,12.0,12.0,93,0.00,,,0.50,Rainwise IP-100,2013-04-14 01:15:00,
2013-04-13 21:20:00,39.0,37.0,29.96,South,180,8.0,13.0,90,0.00,,,0.50,Rainwise IP-100,2013-04-14 01:20:00,
2013-04-13 21:25:00,39.0,37.0,29.96,SW,225,6.0,10.0,92,0.00,,,0.50,Rainwise IP-100,2013-04-14 01:25:00,
2013-04-13 21:30:00,38.0,36.0,29.96,South,180,6.0,9.0,93,0.00,,,0.50,Rainwise IP-100,2013-04-14 01:30:00,
2013-04-13 21:35:00,38.0,37.0,29.96,South,180,7.0,9.0,95,0.00,,,0.50,Rainwise IP-100,2013-04-14 01:35:00,
2013-04-13 21:40:00,38.0,37.0,29.96,SW,225,6.0,10.0,95,0.00,,,0.50,Rainwise IP-100,2013-04-14 01:40:00,
2013-04-13 21:45:00,38.0,37.0,29.97,SW,225,3.0,7.0,96,0.00,,,0.50,Rainwise IP-100,2013-04-14 01:45:00,
2013-04-13 21:50:00,38.0,36.0,29.97,SW,225,9.0,10.0,93,0.00,,,0.50,Rainwise IP-100,2013-04-14 01:50:00,
2013-04-13 21:55:00,38.0,35.0,29.97,SW,225,10.0,12.0,89,0.00,,,0.50,Rainwise IP-100,2013-04-14 01:55:00,
2013-04-13 22:00:00,38.0,35.0,29.97,SSW,202,7.0,12.0,89,0.00,,,0.50,Rainwise IP-100,2013-04-14 02:00:00,
2013-04-13 22:05:00,38.0,35.0,29.96,SSW,202,7.0,13.0,89,0.00,,,0.50,Rainwise IP-100,2013-04-14 02:05:00,
2013-04-13 22:10:00,38.0,35.0,29.97,SSW,202,9.0,12.0,88,0.00,,,0.50,Rainwise IP-100,2013-04-14 02:10:00,
2013-04-13 22:15:00,38.0,35.0,29.97,South,180,9.0,11.0,89,0.00,,,0.50,Rainwise IP-100,2013-04-14 02:15:00,
2013-04-13 22:20:00,38.0,35.0,29.97,SSW,202,9.0,12.0,87,0.00,,,0.50,Rainwise IP-100,2013-04-14 02:20:00,
2013-04-13 22:25:00,38.0,35.0,29.97,South,180,10.0,17.0,86,0.00,,,0.50,Rainwise IP-100,2013-04-14 02:25:00,
2013-04-13 22:30:00,38.0,35.0,29.97,South,180,9.0,15.0,85,0.00,,,0.50,Rainwise IP-100,2013-04-14 02:30:00,
2013-04-13 22:35:00,38.0,33.0,29.97,SW,225,9.0,12.0,84,0.00,,,0.50,Rainwise IP-100,2013-04-14 02:35:00,
2013-04-13 22:40:00,38.0,33.0,29.98,SSW,202,10.0,17.0,82,0.00,,,0.50,Rainwise IP-100,2013-04-14 02:40:00,
2013-04-13 22:45:00,38.0,33.0,29.98,South,180,10.0,13.0,83,0.00,,,0.50,Rainwise IP-100,2013-04-14 02:45:00,
2013-04-13 22:50:00,38.0,33.0,29.98,SSW,202,10.0,13.0,83,0.00,,,0.50,Rainwise IP-100,2013-04-14 02:50:00,
2013-04-13 22:55:00,38.0,35.0,29.98,South,180,9.0,13.0,85,0.00,,,0.50,Rainwise IP-100,2013-04-14 02:55:00,
2013-04-13 23:00:00,38.0,33.0,29.98,SSW,202,10.0,12.0,84,0.00,,,0.50,Rainwise IP-100,2013-04-14 03:00:00,
2013-04-13 23:05:00,38.0,33.0,29.98,South,180,8.0,12.0,84,0.00,,,0.50,Rainwise IP-100,2013-04-14 03:05:00,
2013-04-13 23:10:00,38.0,33.0,29.98,SSE,157,12.0,13.0,82,0.00,,,0.50,Rainwise IP-100,2013-04-14 03:10:00,
2013-04-13 23:15:00,38.0,33.0,29.98,South,180,10.0,14.0,82,0.00,,,0.50,Rainwise IP-100,2013-04-14 03:15:00,
2013-04-13 23:20:00,39.0,35.0,29.97,South,180,10.0,13.0,82,0.00,,,0.50,Rainwise IP-100,2013-04-14 03:20:00,
2013-04-13 23:25:00,39.0,33.0,29.97,South,180,11.0,13.0,80,0.00,,,0.50,Rainwise IP-100,2013-04-14 03:25:00,
2013-04-13 23:30:00,39.0,33.0,29.97,South,180,12.0,15.0,80,0.00,,,0.50,Rainwise IP-100,2013-04-14 03:30:00,
2013-04-13 23:35:00,39.0,33.0,29.97,SSW,202,9.0,14.0,81,0.00,,,0.50,Rainwise IP-100,2013-04-14 03:35:00,
2013-04-13 23:40:00,38.0,33.0,29.97,SSW,202,13.0,17.0,82,0.00,,,0.50,Rainwise IP-100,2013-04-14 03:40:00,
2013-04-13 23:45:00,38.0,32.0,29.97,SSW,202,10.0,16.0,79,0.00,,,0.50,Rainwise IP-100,2013-04-14 03:45:00,
2013-04-13 23:50:00,38.0,32.0,29.97,SW,225,7.0,12.0,80,0.00,,,0.50,Rainwise IP-100,2013-04-14 03:50:00,
2013-04-13 23:55:00,39.0,33.0,29.97,SSW,202,10.0,16.0,78,0.00,,,0.50,Rainwise IP-100,2013-04-14 03:55:00,